| time (UTC) | temp C | wind direction | speed KPH | gust KPH | rain 1hr cm | rain 24hr cm | rain mn cm | humidity % | barometer mb |
| 20260510083005 | 7 | 26 | 0.0 | 3.2 | 0.00 | 0.00 | 0.00 | 94 | 1011.8 |
| 20260510082516 | 8 | 25 | 0.0 | 3.2 | 0.00 | 0.00 | 0.00 | 94 | 1011.7 |
| 20260510082003 | 8 | 25 | 0.0 | 3.2 | 0.00 | 0.00 | 0.00 | 94 | 1011.8 |
| 20260510081503 | 8 | 25 | 0.0 | 3.2 | 0.00 | 0.00 | 0.00 | 94 | 1011.8 |
| 20260510081005 | 8 | 42 | 0.0 | 1.6 | 0.00 | 0.00 | 0.00 | 94 | 1011.7 |
| 20260510080502 | 8 | 42 | 0.0 | 3.2 | 0.00 | 0.00 | 0.00 | 94 | 1011.6 |
| 20260510080002 | 8 | 55 | 0.0 | 4.8 | 0.00 | 0.00 | 0.00 | 94 | 1011.6 |
| 20260510075459 | 8 | 90 | 0.0 | 4.8 | 0.00 | 0.00 | 0.00 | 94 | 1011.6 |
| 20260510075224 | 8 | 90 | 1.6 | 4.8 | 0.00 | 0.00 | 0.00 | 94 | 1011.5 |
| 20260510074459 | 8 | 102 | 0.0 | 4.8 | 0.00 | 0.00 | 0.00 | 94 | 1011.5 |
| 20260510074221 | 8 | 46 | 0.0 | 3.2 | 0.00 | 0.00 | 0.00 | 93 | 1011.4 |
| 20260510073718 | 8 | 40 | 0.0 | 1.6 | 0.00 | 0.00 | 0.00 | 94 | 1011.4 |
| 20260510072956 | 8 | 40 | 0.0 | 3.2 | 0.00 | 0.00 | 0.00 | 94 | 1011.4 |
| 20260510072457 | 9 | 36 | 0.0 | 3.2 | 0.00 | 0.00 | 0.00 | 93 | 1011.4 |
| 20260510072002 | 9 | 36 | 0.0 | 3.2 | 0.00 | 0.00 | 0.00 | 93 | 1011.3 |
| 20260510071452 | 10 | 36 | 0.0 | 3.2 | 0.00 | 0.00 | 0.00 | 94 | 1011.3 |
| 20260510070952 | 10 | 93 | 0.0 | 3.2 | 0.00 | 0.00 | 0.00 | 94 | 1011.2 |
| 20260510070456 | 10 | 74 | 0.0 | 3.2 | 0.00 | 0.00 | 0.00 | 94 | 1011.1 |
| 20260510065949 | 9 | 74 | 0.0 | 1.6 | 0.00 | 0.00 | 0.00 | 94 | 1011.0 |
| 20260510065449 | 9 | 74 | 0.0 | 3.2 | 0.00 | 0.00 | 0.00 | 94 | 1011.0 |
| 20260510064947 | 9 | 74 | 0.0 | 3.2 | 0.00 | 0.00 | 0.00 | 94 | 1010.9 |
| 20260510064447 | 8 | 74 | 0.0 | 0.0 | 0.00 | 0.00 | 0.00 | 93 | 1010.9 |
| 20260510063952 | 9 | 74 | 0.0 | 1.6 | 0.00 | 0.00 | 0.00 | 93 | 1010.9 |
| 20260510063446 | 9 | 74 | 0.0 | 1.6 | 0.00 | 0.00 | 0.00 | 92 | 1010.8 |
| 20260510062945 | 10 | 74 | 0.0 | 3.2 | 0.00 | 0.00 | 0.00 | 92 | 1010.9 |
| 20260510062704 | 10 | 74 | 0.0 | 3.2 | 0.00 | 0.00 | 0.00 | 93 | 1011.0 |
| 20260510061943 | 10 | 67 | 0.0 | 1.6 | 0.00 | 0.00 | 0.00 | 93 | 1011.0 |
| 20260510061443 | 10 | 76 | 1.6 | 3.2 | 0.00 | 0.00 | 0.00 | 93 | 1011.0 |
| 20260510060943 | 10 | 82 | 1.6 | 3.2 | 0.00 | 0.00 | 0.00 | 93 | 1011.0 |
| 20260510060441 | 10 | 98 | 0.0 | 3.2 | 0.00 | 0.00 | 0.00 | 93 | 1011.0 |
| 20260510055941 | 10 | 98 | 0.0 | 3.2 | 0.00 | 0.00 | 0.00 | 93 | 1011.0 |
| 20260510055446 | 10 | 98 | 0.0 | 3.2 | 0.00 | 0.00 | 0.00 | 93 | 1010.9 |
| 20260510054939 | 10 | 98 | 0.0 | 3.2 | 0.00 | 0.00 | 0.00 | 92 | 1010.9 |
| 20260510054439 | 10 | 98 | 0.0 | 3.2 | 0.00 | 0.00 | 0.00 | 92 | 1010.9 |
| 20260510053939 | 10 | 98 | 0.0 | 0.0 | 0.00 | 0.00 | 0.00 | 92 | 1011.0 |
| 20260510053434 | 10 | 98 | 0.0 | 0.0 | 0.00 | 0.00 | 0.00 | 91 | 1011.0 |
| 20260510052933 | 10 | 98 | 0.0 | 1.6 | 0.00 | 0.00 | 0.00 | 90 | 1010.9 |
| 20260510052433 | 11 | 98 | 0.0 | 1.6 | 0.00 | 0.00 | 0.00 | 91 | 1011.0 |
| 20260510051931 | 11 | 98 | 0.0 | 1.6 | 0.00 | 0.00 | 0.00 | 91 | 1010.9 |
| 20260510051432 | 11 | 98 | 0.0 | 3.2 | 0.00 | 0.00 | 0.00 | 90 | 1011.0 |
| 20260510050931 | 11 | 98 | 1.6 | 3.2 | 0.00 | 0.00 | 0.00 | 89 | 1010.9 |
| 20260510050656 | 11 | 88 | 0.0 | 3.2 | 0.00 | 0.00 | 0.00 | 90 | 1011.0 |
| 20260510045929 | 11 | 82 | 0.0 | 3.2 | 0.00 | 0.00 | 0.00 | 90 | 1011.0 |
| 20260510045657 | 11 | 82 | 0.0 | 3.2 | 0.00 | 0.00 | 0.00 | 91 | 1011.0 |
| 20260510044927 | 11 | 95 | 0.0 | 3.2 | 0.00 | 0.00 | 0.00 | 91 | 1011.0 |
| 20260510044652 | 11 | 95 | 0.0 | 3.2 | 0.00 | 0.00 | 0.00 | 92 | 1011.0 |
| 20260510044147 | 11 | 95 | 0.0 | 0.0 | 0.00 | 0.00 | 0.00 | 92 | 1011.0 |
| 20260510043425 | 11 | 95 | 0.0 | 0.0 | 0.00 | 0.00 | 0.00 | 91 | 1011.0 |
| 20260510042925 | 11 | 95 | 0.0 | 0.0 | 0.00 | 0.00 | 0.00 | 89 | 1010.9 |
| 20260510042425 | 11 | 95 | 0.0 | 3.2 | 0.00 | 0.00 | 0.00 | 87 | 1010.8 |
| 20260510042142 | 12 | 95 | 0.0 | 3.2 | 0.00 | 0.00 | 0.00 | 88 | 1010.8 |
| 20260510041423 | 12 | 95 | 0.0 | 3.2 | 0.00 | 0.00 | 0.00 | 88 | 1010.8 |
| 20260510040928 | 12 | 56 | 0.0 | 3.2 | 0.00 | 0.00 | 0.00 | 88 | 1010.8 |
| 20260510040645 | 11 | 56 | 0.0 | 3.2 | 0.00 | 0.00 | 0.00 | 89 | 1010.9 |
| 20260510035921 | 11 | 55 | 0.0 | 3.2 | 0.00 | 0.00 | 0.00 | 88 | 1010.9 |
| 20260510035419 | 12 | 321 | 0.0 | 3.2 | 0.00 | 0.00 | 0.00 | 87 | 1010.8 |
| 20260510034913 | 12 | 321 | 0.0 | 3.2 | 0.00 | 0.00 | 0.00 | 86 | 1010.8 |
| 20260510034414 | 12 | 321 | 1.6 | 4.8 | 0.00 | 0.00 | 0.00 | 86 | 1010.8 |
| 20260510033911 | 12 | 86 | 3.2 | 4.8 | 0.00 | 0.00 | 0.00 | 87 | 1010.8 |
| 20260510033627 | 12 | 94 | 1.6 | 4.8 | 0.00 | 0.00 | 0.00 | 87 | 1010.8 |
| 20260510032908 | 12 | 98 | 3.2 | 4.8 | 0.00 | 0.00 | 0.00 | 90 | 1010.8 |
| 20260510032402 | 11 | 73 | 1.6 | 4.8 | 0.00 | 0.00 | 0.00 | 89 | 1010.6 |
| 20260510031906 | 11 | 110 | 0.0 | 3.2 | 0.00 | 0.00 | 0.00 | 89 | 1010.6 |
| 20260510031359 | 12 | 319 | 1.6 | 3.2 | 0.00 | 0.00 | 0.00 | 89 | 1010.5 |
| 20260510030857 | 12 | 319 | 1.6 | 3.2 | 0.00 | 0.00 | 0.00 | 87 | 1010.4 |
| 20260510030356 | 12 | 67 | 0.0 | 1.6 | 0.00 | 0.00 | 0.00 | 87 | 1010.4 |
| 20260510025854 | 12 | 108 | 0.0 | 1.6 | 0.00 | 0.00 | 0.00 | 86 | 1010.3 |
| 20260510025353 | 13 | 108 | 0.0 | 3.2 | 0.00 | 0.00 | 0.00 | 84 | 1010.2 |
| 20260510025116 | 13 | 108 | 0.0 | 3.2 | 0.00 | 0.00 | 0.00 | 83 | 1010.1 |
| 20260510024354 | 13 | 108 | 0.0 | 0.0 | 0.00 | 0.00 | 0.00 | 84 | 1010.2 |
| 20260510023854 | 13 | 108 | 0.0 | 0.0 | 0.00 | 0.00 | 0.00 | 84 | 1010.0 |
| 20260510023354 | 13 | 108 | 0.0 | 3.2 | 0.00 | 0.00 | 0.00 | 82 | 1010.1 |
| 20260510022853 | 14 | 108 | 0.0 | 3.2 | 0.00 | 0.00 | 0.00 | 77 | 1010.0 |
| 20260510022620 | 14 | 108 | 0.0 | 3.2 | 0.00 | 0.00 | 0.00 | 77 | 1010.0 |
| 20260510021854 | 15 | 108 | 1.6 | 3.2 | 0.00 | 0.00 | 0.00 | 73 | 1010.0 |
| 20260510021353 | 16 | 108 | 1.6 | 4.8 | 0.00 | 0.00 | 0.00 | 71 | 1009.9 |
| 20260510020854 | 17 | 105 | 1.6 | 4.8 | 0.00 | 0.00 | 0.00 | 69 | 1009.9 |
| 20260510020354 | 17 | 107 | 3.2 | 4.8 | 0.00 | 0.00 | 0.00 | 68 | 1009.8 |
| 20260510015854 | 17 | 105 | 1.6 | 4.8 | 0.00 | 0.00 | 0.00 | 69 | 1009.8 |
| 20260510015353 | 17 | 109 | 1.6 | 3.2 | 0.00 | 0.00 | 0.00 | 69 | 1009.7 |
| 20260510014854 | 16 | 128 | 1.6 | 3.2 | 0.00 | 0.00 | 0.00 | 71 | 1009.6 |
| 20260510014353 | 16 | 128 | 1.6 | 3.2 | 0.00 | 0.00 | 0.00 | 69 | 1009.4 |
| 20260510013853 | 17 | 131 | 1.6 | 3.2 | 0.00 | 0.00 | 0.00 | 66 | 1009.4 |
| 20260510013348 | 17 | 109 | 0.0 | 3.2 | 0.00 | 0.00 | 0.00 | 66 | 1009.4 |
| 20260510012847 | 17 | 109 | 1.6 | 3.2 | 0.00 | 0.00 | 0.00 | 66 | 1009.3 |
| 20260510012611 | 18 | 109 | 1.6 | 3.2 | 0.00 | 0.00 | 0.00 | 65 | 1009.3 |
| 20260510011845 | 18 | 127 | 1.6 | 3.2 | 0.00 | 0.00 | 0.00 | 65 | 1009.1 |
| 20260510011346 | 18 | 130 | 1.6 | 3.2 | 0.00 | 0.00 | 0.00 | 65 | 1009.0 |
| 20260510011113 | 18 | 120 | 1.6 | 3.2 | 0.00 | 0.00 | 0.00 | 65 | 1008.9 |
| 20260510010604 | 18 | 130 | 1.6 | 3.2 | 0.00 | 0.00 | 0.00 | 65 | 1008.9 |
| 20260510010103 | 18 | 115 | 0.0 | 3.2 | 0.00 | 0.00 | 0.00 | 65 | 1008.9 |
| 20260510005346 | 18 | 115 | 1.6 | 3.2 | 0.00 | 0.00 | 0.00 | 63 | 1008.9 |
| 20260510004838 | 18 | 105 | 1.6 | 3.2 | 0.00 | 0.00 | 0.00 | 63 | 1008.8 |
| 20260510004337 | 18 | 103 | 1.6 | 1.6 | 0.00 | 0.00 | 0.00 | 63 | 1008.8 |
| 20260510003838 | 18 | 118 | 1.6 | 1.6 | 0.00 | 0.00 | 0.00 | 61 | 1008.7 |
| 20260510003336 | 19 | 134 | 1.6 | 3.2 | 0.00 | 0.00 | 0.00 | 61 | 1008.7 |
| 20260510002836 | 20 | 134 | 1.6 | 3.2 | 0.00 | 0.00 | 0.00 | 58 | 1008.6 |
| 20260510002335 | 20 | 146 | 1.6 | 3.2 | 0.00 | 0.00 | 0.00 | 55 | 1008.5 |
| 20260510001835 | 21 | 158 | 0.0 | 3.2 | 0.00 | 0.00 | 0.00 | 53 | 1008.4 |
| 20260510001329 | 21 | 158 | 1.6 | 3.2 | 0.00 | 0.00 | 0.00 | 52 | 1008.5 |
| 20260510000829 | 21 | 156 | 1.6 | 3.2 | 0.00 | 0.00 | 0.00 | 51 | 1008.5 |
| 20260510000329 | 21 | 184 | 1.6 | 6.4 | 0.00 | 0.00 | 0.00 | 51 | 1008.4 |
| 20260509235824 | 21 | 182 | 3.2 | 6.4 | 0.00 | 0.00 | 0.00 | 51 | 1008.4 |
| 20260509235554 | 22 | 209 | 3.2 | 8.0 | 0.00 | 0.00 | 0.00 | 51 | 1008.4 |
| 20260509234822 | 22 | 202 | 3.2 | 12.9 | 0.00 | 0.00 | 0.00 | 50 | 1008.3 |
| 20260509234552 | 22 | 198 | 3.2 | 12.9 | 0.00 | 0.00 | 0.00 | 50 | 1008.2 |
| 20260509233820 | 22 | 214 | 4.8 | 12.9 | 0.00 | 0.00 | 0.00 | 50 | 1008.2 |
| 20260509233317 | 22 | 210 | 4.8 | 12.9 | 0.00 | 0.00 | 0.00 | 49 | 1008.2 |
| 20260509232817 | 22 | 0 | 3.2 | 9.7 | 0.00 | 0.00 | 0.00 | 49 | 1008.2 |
| 20260509232317 | 23 | 198 | 3.2 | 8.0 | 0.00 | 0.00 | 0.00 | 50 | 1008.2 |
| 20260509231813 | 23 | 222 | 4.8 | 8.0 | 0.00 | 0.00 | 0.00 | 49 | 1008.1 |
| 20260509231313 | 23 | 200 | 4.8 | 9.7 | 0.00 | 0.00 | 0.00 | 48 | 1008.1 |
| 20260509230813 | 23 | 171 | 4.8 | 9.7 | 0.00 | 0.00 | 0.00 | 48 | 1008.1 |
| 20260509230311 | 23 | 239 | 4.8 | 9.7 | 0.00 | 0.00 | 0.00 | 48 | 1008.1 |
| 20260509230033 | 23 | 227 | 4.8 | 9.7 | 0.00 | 0.00 | 0.00 | 48 | 1008.1 |
| 20260509225316 | 23 | 0 | 4.8 | 14.5 | 0.00 | 0.00 | 0.00 | 48 | 1008.2 |
| 20260509225030 | 23 | 257 | 4.8 | 14.5 | 0.00 | 0.00 | 0.00 | 49 | 1008.1 |
| 20260509224540 | 23 | 178 | 4.8 | 14.5 | 0.00 | 0.00 | 0.00 | 48 | 1008.0 |
| 20260509224256 | 23 | 188 | 4.8 | 14.5 | 0.00 | 0.00 | 0.00 | 49 | 1008.1 |
| 20260509223303 | 23 | 159 | 3.2 | 8.0 | 0.00 | 0.00 | 0.00 | 49 | 1008.1 |
| 20260509222803 | 23 | 225 | 3.2 | 6.4 | 0.00 | 0.00 | 0.00 | 51 | 1008.2 |
| 20260509222306 | 23 | 192 | 1.6 | 6.4 | 0.00 | 0.00 | 0.00 | 50 | 1008.1 |
| 20260509221801 | 23 | 194 | 3.2 | 9.7 | 0.00 | 0.00 | 0.00 | 49 | 1008.2 |
| 20260509221525 | 23 | 215 | 4.8 | 9.7 | 0.00 | 0.00 | 0.00 | 49 | 1008.1 |
| 20260509220801 | 23 | 212 | 6.4 | 12.9 | 0.00 | 0.00 | 0.00 | 48 | 1008.1 |
| 20260509220259 | 23 | 225 | 6.4 | 14.5 | 0.00 | 0.00 | 0.00 | 47 | 1008.2 |
| 20260509215759 | 23 | 199 | 6.4 | 14.5 | 0.00 | 0.00 | 0.00 | 48 | 1008.2 |
| 20260509215306 | 23 | 230 | 8.0 | 16.1 | 0.00 | 0.00 | 0.00 | 47 | 1008.2 |
| 20260509214757 | 23 | 0 | 9.7 | 17.7 | 0.00 | 0.00 | 0.00 | 46 | 1008.1 |
| 20260509214257 | 23 | 209 | 6.4 | 19.3 | 0.00 | 0.00 | 0.00 | 47 | 1008.1 |
| 20260509213757 | 23 | 0 | 6.4 | 19.3 | 0.00 | 0.00 | 0.00 | 48 | 1007.9 |
| 20260509213255 | 23 | 242 | 9.7 | 19.3 | 0.00 | 0.00 | 0.00 | 46 | 1008.0 |
| 20260509212755 | 23 | 204 | 9.7 | 19.3 | 0.00 | 0.00 | 0.00 | 47 | 1008.1 |
| 20260509212254 | 23 | 176 | 6.4 | 20.9 | 0.00 | 0.00 | 0.00 | 47 | 1007.9 |
| 20260509211753 | 23 | 154 | 6.4 | 20.9 | 0.00 | 0.00 | 0.00 | 48 | 1008.0 |
| 20260509211253 | 23 | 198 | 8.0 | 20.9 | 0.00 | 0.00 | 0.00 | 46 | 1007.9 |
| 20260509211027 | 24 | 0 | 9.7 | 20.9 | 0.00 | 0.00 | 0.00 | 47 | 1007.9 |
| 20260509210517 | 25 | 186 | 8.0 | 19.3 | 0.00 | 0.00 | 0.00 | 45 | 1008.0 |
| 20260509205751 | 25 | 202 | 8.0 | 14.5 | 0.00 | 0.00 | 0.00 | 45 | 1007.8 |
| 20260509205251 | 25 | 263 | 9.7 | 20.9 | 0.00 | 0.00 | 0.00 | 46 | 1007.8 |
| 20260509204749 | 24 | 201 | 9.7 | 20.9 | 0.00 | 0.00 | 0.00 | 46 | 1007.9 |
| 20260509204249 | 23 | 207 | 8.0 | 14.5 | 0.00 | 0.00 | 0.00 | 49 | 1007.8 |
| 20260509203748 | 23 | 254 | 8.0 | 14.5 | 0.00 | 0.00 | 0.00 | 48 | 1007.8 |
| 20260509203247 | 23 | 192 | 8.0 | 14.5 | 0.00 | 0.00 | 0.00 | 49 | 1007.8 |
| 20260509202747 | 23 | 127 | 6.4 | 14.5 | 0.00 | 0.00 | 0.00 | 47 | 1007.8 |
| 20260509202252 | 23 | 223 | 6.4 | 17.7 | 0.00 | 0.00 | 0.00 | 49 | 1007.8 |
| 20260509201745 | 23 | 217 | 6.4 | 17.7 | 0.00 | 0.00 | 0.00 | 48 | 1007.8 |
| 20260509201245 | 23 | 210 | 9.7 | 24.1 | 0.00 | 0.00 | 0.00 | 49 | 1007.8 |
| 20260509200748 | 24 | 220 | 9.7 | 24.1 | 0.00 | 0.00 | 0.00 | 46 | 1007.8 |
| 20260509200241 | 24 | 215 | 6.4 | 24.1 | 0.00 | 0.00 | 0.00 | 48 | 1007.8 |
| 20260509195741 | 23 | 279 | 6.4 | 24.1 | 0.00 | 0.00 | 0.00 | 49 | 1007.9 |
| 20260509195240 | 23 | 202 | 8.0 | 24.1 | 0.00 | 0.00 | 0.00 | 49 | 1008.0 |
| 20260509194959 | 23 | 221 | 11.3 | 24.1 | 0.00 | 0.00 | 0.00 | 46 | 1008.1 |
| 20260509194238 | 24 | 256 | 11.3 | 20.9 | 0.00 | 0.00 | 0.00 | 47 | 1008.2 |
| 20260509193738 | 23 | 271 | 11.3 | 22.5 | 0.00 | 0.00 | 0.00 | 46 | 1008.3 |
| 20260509193237 | 24 | 213 | 9.7 | 22.5 | 0.00 | 0.00 | 0.00 | 45 | 1008.4 |
| 20260509192737 | 24 | 270 | 11.3 | 24.1 | 0.00 | 0.00 | 0.00 | 47 | 1008.4 |
| 20260509192234 | 23 | 0 | 11.3 | 24.1 | 0.00 | 0.00 | 0.00 | 49 | 1008.5 |
| 20260509191740 | 23 | 236 | 12.9 | 29.0 | 0.00 | 0.00 | 0.00 | 48 | 1008.5 |
| 20260509191230 | 22 | 246 | 16.1 | 29.0 | 0.00 | 0.00 | 0.00 | 49 | 1008.5 |
| 20260509190953 | 23 | 262 | 12.9 | 25.7 | 0.00 | 0.00 | 0.00 | 48 | 1008.7 |
| 20260509190457 | 23 | 208 | 11.3 | 22.5 | 0.00 | 0.00 | 0.00 | 48 | 1008.6 |
| 20260509185729 | 23 | 274 | 14.5 | 27.4 | 0.00 | 0.00 | 0.00 | 49 | 1008.7 |
| 20260509185717 | 22 | 215 | 14.5 | 27.4 | 0.00 | 0.00 | 0.00 | 50 | 1008.9 |
| 20260509184728 | 22 | 277 | 14.5 | 27.4 | 0.00 | 0.00 | 0.00 | 48 | 1009.0 |
| 20260509184222 | 23 | 259 | 14.5 | 27.4 | 0.00 | 0.00 | 0.00 | 47 | 1009.2 |
| 20260509183723 | 23 | 230 | 14.5 | 27.4 | 0.00 | 0.00 | 0.00 | 48 | 1009.3 |
| 20260509183227 | 23 | 274 | 14.5 | 27.4 | 0.00 | 0.00 | 0.00 | 51 | 1009.3 |
| 20260509182715 | 22 | 283 | 12.9 | 27.4 | 0.00 | 0.00 | 0.00 | 54 | 1009.4 |
| 20260509182214 | 22 | 282 | 11.3 | 27.4 | 0.00 | 0.00 | 0.00 | 52 | 1009.5 |
| 20260509182201 | 22 | 250 | 9.7 | 25.7 | 0.00 | 0.00 | 0.00 | 56 | 1009.5 |
| 20260509181209 | 22 | 280 | 8.0 | 16.1 | 0.00 | 0.00 | 0.00 | 56 | 1009.6 |
| 20260509180707 | 21 | 248 | 9.7 | 19.3 | 0.00 | 0.00 | 0.00 | 57 | 1009.8 |
| 20260509180206 | 21 | 261 | 12.9 | 20.9 | 0.00 | 0.00 | 0.00 | 57 | 1009.8 |
| 20260509175923 | 21 | 256 | 12.9 | 22.5 | 0.00 | 0.00 | 0.00 | 58 | 1009.9 |
| 20260509175204 | 21 | 271 | 11.3 | 22.5 | 0.00 | 0.00 | 0.00 | 57 | 1010.0 |
| 20260509174705 | 21 | 223 | 9.7 | 20.9 | 0.00 | 0.00 | 0.00 | 59 | 1010.0 |
| 20260509174200 | 21 | 234 | 11.3 | 22.5 | 0.00 | 0.00 | 0.00 | 57 | 1010.0 |
| 20260509173701 | 21 | 310 | 9.7 | 22.5 | 0.00 | 0.00 | 0.00 | 57 | 1010.0 |
| 20260509173201 | 21 | 200 | 9.7 | 20.9 | 0.00 | 0.00 | 0.00 | 58 | 1010.0 |
| 20260509172701 | 21 | 200 | 11.3 | 25.7 | 0.00 | 0.00 | 0.00 | 58 | 1010.2 |
| 20260509172200 | 21 | 0 | 12.9 | 25.7 | 0.00 | 0.00 | 0.00 | 56 | 1010.1 |
| 20260509171700 | 21 | 232 | 12.9 | 25.7 | 0.00 | 0.00 | 0.00 | 56 | 1010.1 |
| 20260509171201 | 21 | 212 | 12.9 | 25.7 | 0.00 | 0.00 | 0.00 | 57 | 1010.1 |
| 20260509170701 | 21 | 216 | 11.3 | 24.1 | 0.00 | 0.00 | 0.00 | 58 | 1010.1 |
| 20260509170201 | 21 | 163 | 9.7 | 24.1 | 0.00 | 0.00 | 0.00 | 60 | 1010.2 |
| 20260509165656 | 20 | 265 | 9.7 | 22.5 | 0.00 | 0.00 | 0.00 | 60 | 1010.3 |
| 20260509165157 | 20 | 197 | 9.7 | 20.9 | 0.00 | 0.00 | 0.00 | 61 | 1010.5 |
| 20260509164656 | 20 | 217 | 9.7 | 20.9 | 0.00 | 0.00 | 0.00 | 60 | 1010.4 |
| 20260509164417 | 20 | 181 | 8.0 | 17.7 | 0.00 | 0.00 | 0.00 | 61 | 1010.4 |
| 20260509163657 | 20 | 252 | 9.7 | 20.9 | 0.00 | 0.00 | 0.00 | 62 | 1010.5 |
| 20260509163156 | 19 | 176 | 9.7 | 20.9 | 0.00 | 0.00 | 0.00 | 61 | 1010.5 |
| 20260509162657 | 19 | 220 | 12.9 | 20.9 | 0.00 | 0.00 | 0.00 | 60 | 1010.5 |
| 20260509162157 | 20 | 264 | 11.3 | 24.1 | 0.00 | 0.00 | 0.00 | 60 | 1010.5 |
| 20260509161651 | 20 | 228 | 8.0 | 24.1 | 0.00 | 0.00 | 0.00 | 58 | 1010.5 |
| 20260509161150 | 20 | 175 | 9.7 | 22.5 | 0.00 | 0.00 | 0.00 | 58 | 1010.6 |
| 20260509160649 | 20 | 194 | 11.3 | 17.7 | 0.00 | 0.00 | 0.00 | 59 | 1010.6 |
| 20260509160144 | 20 | 225 | 9.7 | 19.3 | 0.00 | 0.00 | 0.00 | 58 | 1010.6 |
| 20260509155642 | 20 | 234 | 8.0 | 22.5 | 0.00 | 0.00 | 0.00 | 59 | 1010.8 |
| 20260509155141 | 20 | 207 | 9.7 | 22.5 | 0.00 | 0.00 | 0.00 | 58 | 1010.8 |
| 20260509154636 | 20 | 212 | 12.9 | 24.1 | 0.00 | 0.00 | 0.00 | 58 | 1010.8 |
| 20260509154136 | 20 | 211 | 12.9 | 24.1 | 0.00 | 0.00 | 0.00 | 57 | 1010.8 |
| 20260509153636 | 20 | 182 | 11.3 | 27.4 | 0.00 | 0.00 | 0.00 | 56 | 1010.6 |
| 20260509153353 | 20 | 269 | 11.3 | 27.4 | 0.00 | 0.00 | 0.00 | 59 | 1010.6 |
| 20260509152632 | 19 | 227 | 14.5 | 27.4 | 0.00 | 0.00 | 0.00 | 58 | 1010.9 |
| 20260509152132 | 19 | 221 | 14.5 | 27.4 | 0.00 | 0.00 | 0.00 | 56 | 1010.9 |
| 20260509151631 | 20 | 218 | 12.9 | 25.7 | 0.00 | 0.00 | 0.00 | 56 | 1011.1 |
| 20260509151129 | 19 | 186 | 11.3 | 25.7 | 0.00 | 0.00 | 0.00 | 60 | 1011.0 |
| 20260509150629 | 19 | 205 | 11.3 | 20.9 | 0.00 | 0.00 | 0.00 | 57 | 1011.0 |
| 20260509150126 | 18 | 209 | 11.3 | 27.4 | 0.00 | 0.00 | 0.00 | 60 | 1010.8 |
| 20260509145627 | 18 | 173 | 11.3 | 27.4 | 0.00 | 0.00 | 0.00 | 60 | 1010.9 |
| 20260509145353 | 18 | 207 | 9.7 | 22.5 | 0.00 | 0.00 | 0.00 | 60 | 1010.9 |
| 20260509144843 | 18 | 184 | 9.7 | 22.5 | 0.00 | 0.00 | 0.00 | 61 | 1011.1 |
| 20260509144343 | 17 | 182 | 9.7 | 22.5 | 0.00 | 0.00 | 0.00 | 61 | 1011.1 |
| 20260509143622 | 17 | 190 | 9.7 | 24.1 | 0.00 | 0.00 | 0.00 | 63 | 1011.1 |
| 20260509143122 | 17 | 188 | 9.7 | 24.1 | 0.00 | 0.00 | 0.00 | 64 | 1011.3 |
| 20260509142622 | 17 | 131 | 11.3 | 22.5 | 0.00 | 0.00 | 0.00 | 64 | 1011.3 |
| 20260509142122 | 17 | 198 | 9.7 | 22.5 | 0.00 | 0.00 | 0.00 | 63 | 1011.6 |
| 20260509141623 | 17 | 209 | 8.0 | 19.3 | 0.00 | 0.00 | 0.00 | 64 | 1011.6 |
| 20260509141126 | 16 | 214 | 8.0 | 19.3 | 0.00 | 0.00 | 0.00 | 63 | 1011.6 |
| 20260509140616 | 16 | 204 | 8.0 | 17.7 | 0.00 | 0.00 | 0.00 | 64 | 1011.6 |
| 20260509140116 | 16 | 192 | 8.0 | 17.7 | 0.00 | 0.00 | 0.00 | 64 | 1011.6 |
| 20260509135615 | 16 | 198 | 6.4 | 14.5 | 0.00 | 0.00 | 0.00 | 64 | 1011.7 |
| 20260509135112 | 16 | 217 | 8.0 | 17.7 | 0.00 | 0.00 | 0.00 | 65 | 1011.7 |
| 20260509134608 | 15 | 189 | 9.7 | 17.7 | 0.00 | 0.00 | 0.00 | 65 | 1011.8 |
| 20260509134113 | 15 | 198 | 11.3 | 19.3 | 0.00 | 0.00 | 0.00 | 65 | 1011.9 |
| 20260509133606 | 15 | 211 | 9.7 | 19.3 | 0.00 | 0.00 | 0.00 | 65 | 1012.0 |
| 20260509133331 | 15 | 207 | 8.0 | 17.7 | 0.00 | 0.00 | 0.00 | 65 | 1012.0 |
| 20260509132823 | 15 | 214 | 6.4 | 19.3 | 0.00 | 0.00 | 0.00 | 65 | 1012.0 |
| 20260509132105 | 15 | 160 | 8.0 | 19.3 | 0.00 | 0.00 | 0.00 | 66 | 1012.1 |
| 20260509131604 | 15 | 217 | 8.0 | 22.5 | 0.00 | 0.00 | 0.00 | 66 | 1012.0 |
| 20260509131104 | 15 | 206 | 9.7 | 22.5 | 0.00 | 0.00 | 0.00 | 66 | 1011.9 |
| 20260509130607 | 15 | 239 | 11.3 | 22.5 | 0.00 | 0.00 | 0.00 | 65 | 1012.0 |
| 20260509125614 | 15 | 175 | 9.7 | 17.7 | 0.00 | 0.00 | 0.00 | 66 | 1011.9 |
| 20260509125319 | 14 | 211 | 8.0 | 17.7 | 0.00 | 0.00 | 0.00 | 66 | 1012.0 |
| 20260509124600 | 14 | 181 | 8.0 | 17.7 | 0.00 | 0.00 | 0.00 | 66 | 1012.0 |
| 20260509124100 | 14 | 203 | 9.7 | 17.7 | 0.00 | 0.00 | 0.00 | 67 | 1012.0 |
| 20260509123825 | 13 | 182 | 9.7 | 24.1 | 0.00 | 0.00 | 0.00 | 66 | 1012.0 |
| 20260509123324 | 13 | 197 | 9.7 | 24.1 | 0.00 | 0.00 | 0.00 | 66 | 1012.0 |
| 20260509122557 | 13 | 207 | 8.0 | 16.1 | 0.00 | 0.00 | 0.00 | 66 | 1012.1 |
| 20260509122324 | 13 | 128 | 8.0 | 17.7 | 0.00 | 0.00 | 0.00 | 67 | 1012.0 |
| 20260509121556 | 13 | 190 | 9.7 | 17.7 | 0.00 | 0.00 | 0.00 | 66 | 1012.0 |
| 20260509121108 | 13 | 219 | 9.7 | 17.7 | 0.00 | 0.00 | 0.00 | 67 | 1011.9 |
| 20260509120554 | 13 | 176 | 8.0 | 16.1 | 0.00 | 0.00 | 0.00 | 67 | 1011.8 |
| 20260509120055 | 13 | 166 | 6.4 | 17.7 | 0.00 | 0.00 | 0.00 | 67 | 1011.9 |
| 20260509115554 | 13 | 169 | 6.4 | 17.7 | 0.00 | 0.00 | 0.00 | 67 | 1012.0 |
| 20260509115052 | 13 | 219 | 8.0 | 17.7 | 0.00 | 0.00 | 0.00 | 68 | 1011.9 |
| 20260509114552 | 13 | 194 | 8.0 | 16.1 | 0.00 | 0.00 | 0.00 | 67 | 1012.0 |
| 20260509114052 | 13 | 160 | 8.0 | 16.1 | 0.00 | 0.00 | 0.00 | 67 | 1012.0 |
| 20260509113555 | 12 | 173 | 8.0 | 16.1 | 0.00 | 0.00 | 0.00 | 67 | 1012.0 |
| 20260509113050 | 12 | 163 | 8.0 | 16.1 | 0.00 | 0.00 | 0.00 | 67 | 1012.0 |
| 20260509112601 | 12 | 203 | 6.4 | 14.5 | 0.00 | 0.00 | 0.00 | 67 | 1011.9 |
| 20260509112313 | 12 | 192 | 6.4 | 12.9 | 0.00 | 0.00 | 0.00 | 67 | 1011.9 |
| 20260509111547 | 12 | 130 | 6.4 | 12.9 | 0.00 | 0.00 | 0.00 | 66 | 1012.0 |
| 20260509111048 | 12 | 180 | 4.8 | 12.9 | 0.00 | 0.00 | 0.00 | 65 | 1012.0 |
| 20260509110546 | 12 | 202 | 4.8 | 9.7 | 0.00 | 0.00 | 0.00 | 65 | 1012.0 |
| 20260509110522 | 12 | 180 | 4.8 | 11.3 | 0.00 | 0.00 | 0.00 | 65 | 1011.9 |
| 20260509105545 | 12 | 176 | 4.8 | 11.3 | 0.00 | 0.00 | 0.00 | 65 | 1011.9 |
| 20260509105049 | 12 | 201 | 3.2 | 12.9 | 0.00 | 0.00 | 0.00 | 65 | 1011.9 |
| 20260509104759 | 12 | 181 | 4.8 | 12.9 | 0.00 | 0.00 | 0.00 | 64 | 1011.9 |
| 20260509104040 | 12 | 153 | 6.4 | 12.9 | 0.00 | 0.00 | 0.00 | 63 | 1011.8 |
| 20260509103544 | 12 | 156 | 4.8 | 11.3 | 0.00 | 0.00 | 0.00 | 64 | 1011.8 |
| 20260509103038 | 12 | 162 | 4.8 | 9.7 | 0.00 | 0.00 | 0.00 | 64 | 1011.8 |
| 20260509102549 | 12 | 157 | 4.8 | 9.7 | 0.00 | 0.00 | 0.00 | 64 | 1011.8 |
| 20260509102036 | 12 | 173 | 4.8 | 9.7 | 0.00 | 0.00 | 0.00 | 64 | 1011.8 |
| 20260509101536 | 12 | 200 | 4.8 | 9.7 | 0.00 | 0.00 | 0.00 | 64 | 1011.8 |
| 20260509101036 | 12 | 178 | 4.8 | 11.3 | 0.00 | 0.00 | 0.00 | 64 | 1011.7 |
| 20260509100534 | 12 | 148 | 4.8 | 11.3 | 0.00 | 0.00 | 0.00 | 64 | 1011.6 |
| 20260509100032 | 12 | 181 | 6.4 | 11.3 | 0.00 | 0.00 | 0.00 | 64 | 1011.5 |
| 20260509095531 | 12 | 169 | 4.8 | 11.3 | 0.00 | 0.00 | 0.00 | 64 | 1011.5 |
| 20260509095028 | 12 | 180 | 3.2 | 8.0 | 0.00 | 0.00 | 0.00 | 64 | 1011.6 |
| 20260509094539 | 12 | 156 | 3.2 | 11.3 | 0.00 | 0.00 | 0.00 | 64 | 1011.6 |
| 20260509094026 | 12 | 157 | 3.2 | 11.3 | 0.00 | 0.00 | 0.00 | 64 | 1011.7 |
| 20260509093526 | 12 | 158 | 3.2 | 9.7 | 0.00 | 0.00 | 0.00 | 63 | 1011.6 |
| 20260509093026 | 12 | 209 | 4.8 | 8.0 | 0.00 | 0.00 | 0.00 | 63 | 1011.7 |
| 20260509092522 | 12 | 201 | 4.8 | 8.0 | 0.00 | 0.00 | 0.00 | 63 | 1011.8 |
| 20260509092019 | 12 | 183 | 3.2 | 9.7 | 0.00 | 0.00 | 0.00 | 63 | 1011.8 |
| 20260509091529 | 12 | 199 | 3.2 | 9.7 | 0.00 | 0.00 | 0.00 | 63 | 1011.8 |
| 20260509091235 | 12 | 183 | 3.2 | 8.0 | 0.00 | 0.00 | 0.00 | 63 | 1011.9 |
| 20260509090519 | 12 | 159 | 3.2 | 8.0 | 0.00 | 0.00 | 0.00 | 63 | 1011.9 |
| 20260509090019 | 12 | 148 | 3.2 | 8.0 | 0.00 | 0.00 | 0.00 | 62 | 1011.9 |
| 20260509085519 | 12 | 150 | 3.2 | 8.0 | 0.00 | 0.00 | 0.00 | 62 | 1012.0 |
| 20260509085013 | 12 | 165 | 3.2 | 11.3 | 0.00 | 0.00 | 0.00 | 63 | 1012.1 |
| 20260509084513 | 12 | 148 | 1.6 | 11.3 | 0.00 | 0.00 | 0.00 | 62 | 1012.2 |
| 20260509084007 | 12 | 164 | 4.8 | 11.3 | 0.00 | 0.00 | 0.00 | 63 | 1012.2 |
| 20260509083505 | 12 | 153 | 4.8 | 11.3 | 0.00 | 0.00 | 0.00 | 62 | 1012.1 |